Rochelle, IL

4:26 AM CST on February 25, 2017 (GMT -0600)
Rochelle

Weather History for KRPJ - March, 2015

Change the Weather History Date:

Monday, March 9, 2015

  Actual Average (KRFD) Record (KRFD)
Temperature  
Mean Temperature 30 °F -  
Max Temperature 42 °F 41 °F 68 °F (1977)
Min Temperature 19 °F 22 °F -2 °F (1984)
Degree Days  
Heating Degree Days 34    
Moisture  
Dew Point 28 °F    
Average Humidity 89    
Maximum Humidity 99    
Minimum Humidity 76    
Precipitation  
Precipitation 0.00 in - - ()
Sea Level Pressure  
Sea Level Pressure 30.14 in    
Wind  
Wind Speed 1 mph (SSE)    
Max Wind Speed 13 mph    
Max Gust Speed -    
Visibility 8 miles    
Events Rain    
Averages and records for this station are not official NWS values.
T = Trace of Precipitation, MM = Missing Value Source: NWS Daily Summary

Daily Weather History Graph

Daily Weather History Graph

Search for Another Location

Airport or City:

Trip Planner

Search our weather history database for the weather conditions in past years. The results will help you decide how hot, cold, wet, or windy it might be!

Date:

Astronomy

Mar. 09, 2015 Rise Set
Actual Time 7:18 AM CDT 6:55 PM CDT
Civil Twilight 6:50 AM CDT 7:23 PM CDT
Nautical Twilight 6:18 AM CDT 7:55 PM CDT
Astronomical Twilight 5:46 AM CDT 8:28 PM CDT
Moon 10:52 PM CDT (3/9) 9:07 AM CDT (3/9)
Length of Visible Light 12h 32m
Length of Day
11h 37m
Waning Gibbous, 86% of the Moon is Illuminated
Mar 9
Waning Gibbous
Mar 13
Last Quarter
Mar 20
New
Mar 27
First Quarter
Apr 4
Full

Hourly Weather History & Observations

Time (CDT) Temp. Windchill Dew Point Humidity Pressure Visibility Wind Dir Wind Speed Gust Speed Precip Events Conditions
12:15 AM 23.5 °F - 22.3 °F 95% 30.16 in 7.0 mi Calm Calm - N/A   Clear
12:35 AM 24.1 °F - 23.0 °F 96% 30.16 in 7.0 mi Calm Calm - N/A   Clear
12:55 AM 23.9 °F - 22.8 °F 96% 30.16 in 7.0 mi Calm Calm - N/A   Clear
1:15 AM 23.2 °F - 21.9 °F 95% 30.16 in 7.0 mi Calm Calm - N/A   Clear
1:35 AM 23.0 °F - 21.7 °F 95% 30.16 in 7.0 mi Calm Calm - N/A   Clear
1:55 AM 23.2 °F - 22.1 °F 96% 30.17 in 7.0 mi Calm Calm - N/A   Clear
2:15 AM 23.5 °F 19.1 °F 22.3 °F 95% 30.16 in 7.0 mi SSE 3.5 mph - N/A   Clear
2:35 AM 23.2 °F - 21.7 °F 94% 30.16 in 10.0 mi Calm Calm - N/A   Clear
2:55 AM 21.7 °F - 20.1 °F 93% 30.15 in 7.0 mi Calm Calm - N/A   Clear
3:15 AM 23.5 °F - 21.7 °F 93% 30.14 in 10.0 mi Calm Calm - N/A   Clear
3:35 AM 21.7 °F - 19.9 °F 93% 30.14 in 10.0 mi Calm Calm - N/A   Clear
3:55 AM 22.6 °F - 21.0 °F 93% 30.13 in 10.0 mi Calm Calm - N/A   Clear
4:15 AM 21.2 °F - 19.6 °F 93% 30.13 in 7.0 mi Calm Calm - N/A   Clear
4:35 AM 20.8 °F - 19.0 °F 93% 30.13 in 10.0 mi Calm Calm - N/A   Clear
4:55 AM 19.8 °F - 17.6 °F 91% 30.13 in 10.0 mi Calm Calm - N/A   Clear
5:15 AM 20.3 °F - 18.5 °F 93% 30.14 in 10.0 mi Calm Calm - N/A   Clear
5:35 AM 19.9 °F - 17.8 °F 91% 30.14 in 10.0 mi Calm Calm - N/A   Clear
5:55 AM 21.4 °F - 19.2 °F 91% 30.14 in 10.0 mi Calm Calm - N/A   Clear
6:15 AM 21.7 °F - 19.9 °F 93% 30.14 in 7.0 mi Calm Calm - N/A   Clear
6:35 AM 20.1 °F - 18.1 °F 92% 30.16 in 7.0 mi Calm Calm - N/A   Clear
6:55 AM 20.1 °F - 18.3 °F 93% 30.16 in 10.0 mi Calm Calm - N/A   Clear
7:15 AM 19.2 °F - 17.2 °F 92% 30.16 in 7.0 mi Calm Calm - N/A   Clear
7:35 AM 19.6 °F 11.7 °F 17.8 °F 93% 30.17 in 7.0 mi South 5.8 mph - N/A   Clear
7:55 AM 20.7 °F 14.2 °F 18.7 °F 92% 30.17 in 7.0 mi SSE 4.6 mph - N/A   Clear
8:15 AM 21.6 °F - 19.4 °F 91% 30.18 in 7.0 mi Calm Calm - N/A   Clear
8:35 AM 22.8 °F 14.5 °F 20.7 °F 91% 30.19 in 7.0 mi South 6.9 mph - N/A   Clear
8:55 AM 25.2 °F - 22.6 °F 90% 30.19 in 7.0 mi Calm Calm - N/A   Clear
9:15 AM 26.6 °F - 23.9 °F 90% 30.19 in 7.0 mi Calm Calm - N/A   Clear
9:35 AM 28.2 °F - 24.8 °F 87% 30.20 in 10.0 mi Calm Calm - N/A   Clear
9:55 AM 30.0 °F - 27.0 °F 88% 30.20 in 7.0 mi Calm Calm - N/A   Clear
10:15 AM 32.0 °F - 28.4 °F 87% 30.19 in 7.0 mi Calm Calm - N/A   Clear
10:35 AM 33.3 °F - 29.3 °F 85% 30.19 in 10.0 mi Calm Calm - N/A   Clear
10:55 AM 34.3 °F - 30.4 °F 85% 30.19 in 7.0 mi Calm Calm - N/A   Clear
11:15 AM 35.2 °F - 30.9 °F 84% 30.19 in 7.0 mi Calm Calm - N/A   Clear
11:35 AM 36.5 °F - 32.2 °F 84% 30.20 in 7.0 mi Calm Calm - N/A   Clear
11:55 AM 37.4 °F - 32.2 °F 81% 30.19 in 7.0 mi Calm Calm - N/A   Clear
12:15 PM 38.3 °F - 32.0 °F 78% 30.19 in 7.0 mi Calm Calm - N/A   Clear
12:35 PM 38.3 °F - 33.6 °F 83% 30.19 in 7.0 mi Calm Calm - N/A   Clear
12:55 PM 38.7 °F - 34.3 °F 84% 30.19 in 7.0 mi Calm Calm - N/A   Clear
1:15 PM 39.6 °F - 34.5 °F 82% 30.18 in 10.0 mi Calm Calm - N/A   Clear
1:35 PM 40.1 °F - 34.3 °F 80% 30.17 in 7.0 mi Calm Calm - N/A   Clear
1:55 PM 40.1 °F - 34.3 °F 80% 30.17 in 10.0 mi Calm Calm - N/A   Clear
2:15 PM 40.5 °F - 34.2 °F 78% 30.17 in 10.0 mi Calm Calm - N/A   Clear
2:35 PM 40.5 °F - 34.3 °F 79% 30.16 in 10.0 mi Calm Calm - N/A   Clear
2:55 PM 41.2 °F - 35.1 °F 79% 30.15 in 10.0 mi Calm Calm - N/A   Clear
3:15 PM 41.2 °F - 35.6 °F 81% 30.14 in 10.0 mi Calm Calm - N/A   Clear
3:35 PM 42.1 °F - 34.9 °F 76% 30.14 in 10.0 mi Calm Calm - N/A   Clear
3:55 PM 41.4 °F - 35.1 °F 78% 30.14 in 10.0 mi Calm Calm - N/A   Clear
4:15 PM 41.4 °F - 34.7 °F 77% 30.13 in 10.0 mi Calm Calm - N/A   Clear
4:35 PM 41.4 °F - 35.2 °F 79% 30.12 in 7.0 mi Calm Calm - N/A   Clear
4:55 PM 41.5 °F - 36.3 °F 82% 30.12 in 7.0 mi Calm Calm - N/A   Clear
5:15 PM 39.6 °F - 36.0 °F 87% 30.12 in 7.0 mi Calm Calm - N/A   Clear
5:35 PM 39.4 °F - 35.2 °F 85% 30.12 in 10.0 mi Calm Calm - N/A   Clear
5:55 PM 38.7 °F - 34.3 °F 84% 30.11 in 10.0 mi Calm Calm - N/A   Clear
6:15 PM 38.7 °F - 34.0 °F 83% 30.11 in 10.0 mi Calm Calm - N/A   Clear
6:35 PM 37.2 °F - 33.6 °F 87% 30.10 in 10.0 mi Calm Calm - N/A   Clear
6:55 PM 35.4 °F - 32.9 °F 91% 30.11 in 7.0 mi Calm Calm - N/A   Clear
7:15 PM 33.3 °F - 31.8 °F 94% 30.11 in 5.0 mi Calm Calm - N/A   Clear
7:35 PM 32.4 °F - 31.8 °F 98% 30.12 in 7.0 mi Calm Calm - N/A   Clear
7:55 PM 32.0 °F - 30.7 °F 95% 30.11 in 7.0 mi Calm Calm - N/A   Clear
8:15 PM 30.9 °F - 29.7 °F 95% 30.10 in 7.0 mi Calm Calm - N/A   Clear
8:35 PM 30.7 °F - 29.1 °F 94% 30.11 in 10.0 mi Calm Calm - N/A   Clear
8:55 PM 31.5 °F - 29.3 °F 92% 30.11 in 10.0 mi Calm Calm - N/A   Clear
9:15 PM 30.9 °F - 29.1 °F 93% 30.11 in 10.0 mi Calm Calm - N/A   Clear
9:35 PM 31.5 °F - 29.5 °F 92% 30.11 in 10.0 mi Calm Calm - N/A   Clear
9:55 PM 33.1 °F 26.1 °F 31.3 °F 93% 30.10 in 10.0 mi SSE 8.1 mph - N/A   Clear
10:15 PM 33.1 °F 26.1 °F 31.3 °F 93% 30.09 in 10.0 mi SSE 8.1 mph - N/A   Clear
10:35 PM 33.8 °F 27.0 °F 32.0 °F 93% 30.09 in 7.0 mi South 8.1 mph - N/A   Clear
10:55 PM 34.2 °F 25.7 °F 33.3 °F 97% 30.08 in 4.0 mi South 11.5 mph - N/A   Mostly Cloudy
11:15 PM 34.0 °F 26.0 °F 33.3 °F 97% 30.08 in 1.8 mi South 10.4 mph - N/A   Overcast
11:35 PM 33.8 °F 24.8 °F 33.3 °F 98% 30.08 in 0.2 mi South 12.7 mph - N/A Rain Rain
11:55 PM 33.3 °F 27.1 °F 32.9 °F 99% 30.08 in 0.2 mi South 6.9 mph - N/A Rain Rain